20050414,150246,0,32.707188,-117.236755,NaN,NaN,NaN,NaN
20050414,150316,29,32.707190,-117.236755,NaN,NaN,NaN,NaN
20050414,150346,59,32.707188,-117.236755,NaN,NaN,NaN,NaN
20050414,150416,89,32.707185,-117.236752,NaN,NaN,NaN,NaN
20050414,150446,119,32.707186,-117.236752,NaN,NaN,NaN,NaN
20050414,150516,149,32.707183,-117.236752,NaN,NaN,NaN,NaN
20050414,150546,179,32.707181,-117.236752,NaN,NaN,NaN,NaN
20050414,150616,209,32.707183,-117.236758,NaN,NaN,NaN,NaN
20050414,150646,239,32.707181,-117.236757,NaN,NaN,NaN,NaN
20050414,150716,269,32.707183,-117.236755,NaN,NaN,NaN,NaN
20050414,150746,299,32.707183,-117.236752,NaN,NaN,NaN,NaN
20050414,150813,326,32.707185,-117.236753,NaN,NaN,NaN,NaN
20050414,150847,360,32.707178,-117.236757,14.614,-0.007,0.216,0.260
20050414,150917,390,32.707181,-117.236755,14.614,-0.007,0.216,0.259
20050414,150947,420,32.707178,-117.236755,14.613,-0.007,0.216,0.259
20050414,151018,451,32.707178,-117.236753,14.613,-0.007,0.216,0.259
20050414,151048,481,32.707185,-117.236752,14.614,-0.007,0.216,0.259
20050414,151117,510,32.707178,-117.236753,14.614,-0.007,0.216,0.259
20050414,151148,541,32.707178,-117.236753,14.614,-0.007,0.210,0.252
20050414,151218,571,32.707165,-117.236758,14.614,-0.007,0.210,0.253
20050414,151247,600,32.707166,-117.236758,14.614,-0.007,0.216,0.260
20050414,151318,631,32.707165,-117.236752,14.615,-0.007,0.216,0.260
20050414,151348,661,32.707168,-117.236755,14.615,-0.007,0.216,0.260
20050414,151418,691,32.707166,-117.236758,14.615,-0.007,0.216,0.261
20050414,151449,722,32.707166,-117.236757,14.616,-0.007,0.216,0.261
20050414,151518,751,32.707163,-117.236757,14.616,-0.007,0.216,0.261
20050414,151549,782,32.707168,-117.236755,14.617,-0.007,0.210,0.255
20050414,151619,812,32.707166,-117.236758,14.617,-0.007,0.216,0.262
20050414,151648,841,32.707168,-117.236755,14.618,-0.007,0.210,0.255
20050414,151718,871,32.707168,-117.236755,14.618,-0.007,0.216,0.262
20050414,151749,902,32.707165,-117.236757,14.619,-0.007,0.216,0.262
20050414,151818,931,32.707161,-117.236758,14.619,-0.007,0.216,0.262
20050414,151848,961,32.707163,-117.236758,14.620,-0.007,0.216,0.262
20050414,151919,992,32.707161,-117.236757,14.621,-0.007,0.216,0.263
20050414,151949,1022,32.707158,-117.236748,14.622,-0.007,0.216,0.263
20050414,152018,1051,32.707163,-117.236748,14.624,-0.007,0.210,0.256
20050414,152049,1082,32.707161,-117.236747,14.624,-0.007,0.216,0.263
20050414,152120,1113,32.707165,-117.236748,14.626,-0.007,0.216,0.263
20050414,152149,1142,32.707165,-117.236747,14.627,-0.007,0.210,0.256
20050414,152219,1172,32.707165,-117.236750,14.628,-0.007,0.210,0.256
20050414,152250,1203,32.707163,-117.236752,14.630,-0.008,0.216,0.262
20050414,152319,1232,32.707161,-117.236750,14.631,-0.008,0.216,0.262
20050414,152350,1263,32.707161,-117.236753,14.633,-0.008,0.216,0.262
20050414,152420,1293,32.707163,-117.236755,14.636,-0.008,0.210,0.255
20050414,152449,1322,32.707163,-117.236757,14.638,-0.008,0.216,0.263
20050414,152520,1353,32.707163,-117.236755,14.639,-0.008,0.216,0.263
20050414,152551,1384,32.707163,-117.236753,14.641,-0.008,0.216,0.263
20050414,152620,1413,32.707163,-117.236753,14.644,-0.008,0.210,0.256
20050414,152650,1443,32.707165,-117.236757,14.647,-0.008,0.216,0.263
20050414,152721,1474,32.707163,-117.236757,14.648,-0.008,0.216,0.263
20050414,152750,1503,32.707163,-117.236755,14.650,-0.008,0.216,0.264
20050414,152820,1533,32.707163,-117.236750,14.653,-0.008,0.216,0.265
20050414,152851,1564,32.707163,-117.236748,14.655,-0.008,0.216,0.265
20050414,152921,1594,32.707163,-117.236750,14.657,-0.008,0.216,0.265
20050414,152951,1624,32.707163,-117.236753,14.659,-0.008,0.216,0.265
20050414,153021,1654,32.707161,-117.236752,14.663,-0.008,0.216,0.264
20050414,153050,1683,32.707163,-117.236755,14.665,-0.008,0.216,0.264
20050414,153121,1714,32.707158,-117.236755,14.667,-0.008,0.210,0.257
20050414,153151,1744,32.707163,-117.236757,14.669,-0.008,0.216,0.264
20050414,153221,1774,32.707160,-117.236757,14.672,-0.008,0.216,0.264
20050414,153251,1804,32.707161,-117.236757,14.676,-0.008,0.216,0.264
20050414,153321,1834,32.707161,-117.236755,14.678,-0.008,0.216,0.264
20050414,153351,1864,32.707160,-117.236757,14.681,-0.008,0.210,0.258
20050414,153421,1894,32.707161,-117.236757,14.685,-0.008,0.216,0.265
20050414,154356,2469,32.707198,-117.236775,NaN,NaN,NaN,NaN
20050414,154426,2499,32.707195,-117.236768,NaN,NaN,NaN,NaN
20050414,154456,2529,32.707190,-117.236767,NaN,NaN,NaN,NaN
20050414,154526,2559,32.707190,-117.236767,NaN,NaN,NaN,NaN
20050414,154556,2589,32.707190,-117.236762,NaN,NaN,NaN,NaN
20050414,154626,2619,32.707190,-117.236763,NaN,NaN,NaN,NaN
20050414,154656,2649,32.707190,-117.236765,NaN,NaN,NaN,NaN
20050414,154726,2679,32.707171,-117.236753,NaN,NaN,NaN,NaN
20050414,154756,2709,32.707170,-117.236755,NaN,NaN,NaN,NaN
20050414,154827,2740,32.707168,-117.236753,NaN,NaN,NaN,NaN
20050414,154856,2769,32.707166,-117.236757,NaN,NaN,NaN,NaN
20050414,154926,2799,32.707166,-117.236753,NaN,NaN,NaN,NaN
20050414,154956,2829,32.707165,-117.236752,NaN,NaN,NaN,NaN
20050414,155026,2859,32.707168,-117.236748,NaN,NaN,NaN,NaN
20050414,155056,2889,32.707166,-117.236757,NaN,NaN,NaN,NaN
20050414,155126,2919,32.707168,-117.236757,NaN,NaN,NaN,NaN
20050414,155156,2949,32.707165,-117.236748,NaN,NaN,NaN,NaN
20050414,155227,2980,32.707165,-117.236752,NaN,NaN,NaN,NaN
20050414,155257,3010,32.707166,-117.236758,NaN,NaN,NaN,NaN
20050414,155326,3039,32.707170,-117.236762,NaN,NaN,NaN,NaN
20050414,155356,3069,32.707168,-117.236763,NaN,NaN,NaN,NaN
20050414,155426,3099,32.707173,-117.236763,NaN,NaN,NaN,NaN
20050414,155456,3129,32.707170,-117.236763,NaN,NaN,NaN,NaN
20050414,155527,3160,32.707173,-117.236763,NaN,NaN,NaN,NaN
20050414,155557,3190,32.707173,-117.236763,NaN,NaN,NaN,NaN
20050414,155627,3220,32.707178,-117.236758,NaN,NaN,NaN,NaN
20050414,155657,3250,32.707178,-117.236758,NaN,NaN,NaN,NaN
20050414,155727,3280,32.707175,-117.236757,NaN,NaN,NaN,NaN
20050414,155757,3310,32.707175,-117.236763,NaN,NaN,NaN,NaN
20050414,155827,3340,32.707175,-117.236763,NaN,NaN,NaN,NaN
20050414,155857,3370,32.707175,-117.236760,NaN,NaN,NaN,NaN
20050414,155928,3401,32.707176,-117.236762,NaN,NaN,NaN,NaN
20050414,155958,3431,32.707176,-117.236763,NaN,NaN,NaN,NaN
20050414,160028,3461,32.707176,-117.236757,NaN,NaN,NaN,NaN
20050414,160057,3490,32.707175,-117.236755,NaN,NaN,NaN,NaN
20050414,160127,3520,32.707175,-117.236757,NaN,NaN,NaN,NaN
20050414,160158,3551,32.707178,-117.236763,NaN,NaN,NaN,NaN
20050414,160227,3580,32.707178,-117.236762,NaN,NaN,NaN,NaN
20050414,160257,3610,32.707175,-117.236763,NaN,NaN,NaN,NaN
20050414,160328,3642,32.707173,-117.236758,NaN,NaN,NaN,NaN
20050414,160358,3671,32.707173,-117.236762,NaN,NaN,NaN,NaN
20050414,160428,3701,32.707175,-117.236762,NaN,NaN,NaN,NaN
20050414,160458,3731,32.707173,-117.236758,NaN,NaN,NaN,NaN
20050414,160528,3761,32.707178,-117.236757,NaN,NaN,NaN,NaN
20050414,160558,3791,32.707173,-117.236762,NaN,NaN,NaN,NaN
20050414,160628,3821,32.707163,-117.236763,NaN,NaN,NaN,NaN
20050414,160658,3851,32.707165,-117.236762,NaN,NaN,NaN,NaN
20050414,160728,3881,32.707166,-117.236758,NaN,NaN,NaN,NaN
20050414,160758,3911,32.707170,-117.236753,NaN,NaN,NaN,NaN
20050414,160829,3942,32.707165,-117.236752,NaN,NaN,NaN,NaN
20050414,160858,3971,32.707166,-117.236752,NaN,NaN,NaN,NaN
20050414,160928,4001,32.707166,-117.236753,NaN,NaN,NaN,NaN
20050414,160958,4031,32.707170,-117.236748,NaN,NaN,NaN,NaN
20050414,161028,4061,32.707171,-117.236743,NaN,NaN,NaN,NaN
20050414,161059,4092,32.707168,-117.236748,NaN,NaN,NaN,NaN
20050414,161129,4122,32.707168,-117.236750,NaN,NaN,NaN,NaN
20050414,161158,4151,32.707170,-117.236750,NaN,NaN,NaN,NaN
20050414,161229,4182,32.707168,-117.236750,NaN,NaN,NaN,NaN
20050414,161258,4211,32.707170,-117.236748,NaN,NaN,NaN,NaN
20050414,161328,4241,32.707176,-117.236767,NaN,NaN,NaN,NaN
20050414,161358,4271,32.707171,-117.236768,NaN,NaN,NaN,NaN
20050414,161428,4301,32.707166,-117.236762,NaN,NaN,NaN,NaN
20050414,161458,4331,32.707166,-117.236760,NaN,NaN,NaN,NaN
20050414,161529,4362,32.707166,-117.236757,NaN,NaN,NaN,NaN
20050414,161558,4391,32.707166,-117.236758,NaN,NaN,NaN,NaN
20050414,161629,4422,32.707170,-117.236755,NaN,NaN,NaN,NaN
20050414,161659,4452,32.707170,-117.236760,NaN,NaN,NaN,NaN
20050414,161728,4481,32.707163,-117.236755,NaN,NaN,NaN,NaN
20050414,161759,4512,32.707165,-117.236758,NaN,NaN,NaN,NaN
20050414,161830,4543,32.707161,-117.236757,NaN,NaN,NaN,NaN
20050414,161900,4573,32.707165,-117.236758,NaN,NaN,NaN,NaN
20050414,161929,4602,32.707165,-117.236760,NaN,NaN,NaN,NaN
20050414,162000,4633,32.707165,-117.236758,NaN,NaN,NaN,NaN
20050414,162030,4663,32.707165,-117.236758,NaN,NaN,NaN,NaN
20050414,162100,4693,32.707166,-117.236758,NaN,NaN,NaN,NaN
20050414,162130,4723,32.707171,-117.236760,NaN,NaN,NaN,NaN
20050414,162201,4754,32.707171,-117.236760,NaN,NaN,NaN,NaN
20050414,162230,4783,32.707170,-117.236758,NaN,NaN,NaN,NaN
20050414,162300,4814,32.707173,-117.236760,NaN,NaN,NaN,NaN
20050414,162330,4843,32.707170,-117.236758,NaN,NaN,NaN,NaN
20050414,162400,4873,32.707166,-117.236762,NaN,NaN,NaN,NaN
20050414,162430,4903,32.707168,-117.236762,NaN,NaN,NaN,NaN
20050414,162500,4933,32.707168,-117.236760,NaN,NaN,NaN,NaN
20050414,162530,4963,32.707166,-117.236760,NaN,NaN,NaN,NaN
20050414,162601,4994,32.707165,-117.236757,NaN,NaN,NaN,NaN
20050414,162630,5023,32.707163,-117.236753,NaN,NaN,NaN,NaN
20050414,162700,5053,32.707168,-117.236750,NaN,NaN,NaN,NaN
20050414,162730,5083,32.707165,-117.236747,NaN,NaN,NaN,NaN
20050414,162801,5114,32.707163,-117.236745,NaN,NaN,NaN,NaN
20050414,162831,5144,32.707158,-117.236748,NaN,NaN,NaN,NaN
20050414,162901,5174,32.707161,-117.236750,NaN,NaN,NaN,NaN
20050414,162931,5204,32.707161,-117.236750,NaN,NaN,NaN,NaN
20050414,163001,5234,32.707163,-117.236752,NaN,NaN,NaN,NaN
20050414,163031,5264,32.707163,-117.236753,NaN,NaN,NaN,NaN
20050414,163101,5294,32.707165,-117.236753,NaN,NaN,NaN,NaN
20050414,163131,5324,32.707165,-117.236753,NaN,NaN,NaN,NaN
20050414,163201,5354,32.707171,-117.236760,NaN,NaN,NaN,NaN
20050414,163231,5384,32.707166,-117.236758,NaN,NaN,NaN,NaN
20050414,163301,5414,32.707165,-117.236758,NaN,NaN,NaN,NaN
20050414,163332,5445,32.707160,-117.236753,NaN,NaN,NaN,NaN
20050414,163402,5475,32.707160,-117.236750,NaN,NaN,NaN,NaN
20050414,163431,5504,32.707163,-117.236752,NaN,NaN,NaN,NaN
20050414,163501,5534,32.707165,-117.236757,NaN,NaN,NaN,NaN
20050414,163531,5564,32.707165,-117.236758,NaN,NaN,NaN,NaN
20050414,163601,5594,32.707165,-117.236760,NaN,NaN,NaN,NaN
20050414,163632,5625,32.707163,-117.236757,NaN,NaN,NaN,NaN
20050414,163701,5654,32.707166,-117.236762,NaN,NaN,NaN,NaN
20050414,163732,5685,32.707165,-117.236760,NaN,NaN,NaN,NaN
20050414,163802,5715,32.707163,-117.236758,NaN,NaN,NaN,NaN
20050414,163832,5745,32.707166,-117.236755,NaN,NaN,NaN,NaN
20050414,163902,5775,32.707166,-117.236755,NaN,NaN,NaN,NaN
20050414,163932,5805,32.707165,-117.236755,NaN,NaN,NaN,NaN
20050414,164002,5835,32.707166,-117.236753,NaN,NaN,NaN,NaN
20050414,164033,5866,32.707165,-117.236743,NaN,NaN,NaN,NaN
20050414,164103,5896,32.707173,-117.236757,NaN,NaN,NaN,NaN
20050414,164132,5925,32.707168,-117.236755,NaN,NaN,NaN,NaN
20050414,164202,5955,32.707175,-117.236755,NaN,NaN,NaN,NaN
20050414,164232,5985,32.707173,-117.236752,NaN,NaN,NaN,NaN
20050414,164303,6016,32.707178,-117.236750,NaN,NaN,NaN,NaN
20050414,164332,6045,32.707175,-117.236748,NaN,NaN,NaN,NaN
20050414,164403,6076,32.707178,-117.236748,NaN,NaN,NaN,NaN
20050414,164432,6105,32.707173,-117.236747,NaN,NaN,NaN,NaN
20050414,164503,6136,32.707176,-117.236750,NaN,NaN,NaN,NaN
20050414,164532,6165,32.707173,-117.236755,NaN,NaN,NaN,NaN
20050414,164603,6196,32.707173,-117.236757,NaN,NaN,NaN,NaN
20050414,164633,6226,32.707175,-117.236755,NaN,NaN,NaN,NaN
20050414,164703,6256,32.707171,-117.236753,NaN,NaN,NaN,NaN
20050414,164733,6286,32.707173,-117.236752,NaN,NaN,NaN,NaN
20050414,164803,6316,32.707173,-117.236753,NaN,NaN,NaN,NaN
20050414,164833,6346,32.707173,-117.236753,NaN,NaN,NaN,NaN
20050414,164904,6377,32.707173,-117.236753,NaN,NaN,NaN,NaN
20050414,164934,6407,32.707178,-117.236753,NaN,NaN,NaN,NaN
20050414,165003,6436,32.707173,-117.236752,NaN,NaN,NaN,NaN
20050414,165033,6466,32.707173,-117.236753,NaN,NaN,NaN,NaN
20050414,165104,6497,32.707176,-117.236760,NaN,NaN,NaN,NaN
20050414,165134,6527,32.707173,-117.236757,NaN,NaN,NaN,NaN
20050414,165204,6557,32.707178,-117.236755,NaN,NaN,NaN,NaN
20050414,165233,6586,32.707178,-117.236752,NaN,NaN,NaN,NaN
20050414,165304,6617,32.707175,-117.236752,NaN,NaN,NaN,NaN
20050414,165334,6648,32.707175,-117.236752,NaN,NaN,NaN,NaN
20050414,165404,6677,32.707181,-117.236752,NaN,NaN,NaN,NaN
20050414,165434,6707,32.707175,-117.236752,NaN,NaN,NaN,NaN
20050414,165504,6737,32.707178,-117.236753,NaN,NaN,NaN,NaN
20050414,165534,6767,32.707166,-117.236748,NaN,NaN,NaN,NaN
20050414,165605,6798,32.707171,-117.236748,NaN,NaN,NaN,NaN
20050414,165635,6828,32.707170,-117.236745,NaN,NaN,NaN,NaN
20050414,165705,6858,32.707173,-117.236747,NaN,NaN,NaN,NaN
20050414,165735,6888,32.707170,-117.236747,NaN,NaN,NaN,NaN
20050414,165805,6918,32.707175,-117.236748,NaN,NaN,NaN,NaN
20050414,165835,6948,32.707175,-117.236745,NaN,NaN,NaN,NaN
20050414,165906,6979,32.707175,-117.236747,NaN,NaN,NaN,NaN
20050414,165935,7008,32.707168,-117.236750,NaN,NaN,NaN,NaN
20050414,170005,7038,32.707166,-117.236748,NaN,NaN,NaN,NaN
20050414,170035,7068,32.707176,-117.236748,NaN,NaN,NaN,NaN
20050414,170105,7098,32.707171,-117.236747,NaN,NaN,NaN,NaN
20050414,170135,7128,32.707175,-117.236743,NaN,NaN,NaN,NaN
20050414,170618,7411,32.707175,-117.236743,NaN,NaN,NaN,NaN
20050414,170648,7441,32.707178,-117.236745,NaN,NaN,NaN,NaN
20050414,170718,7471,32.707175,-117.236743,NaN,NaN,NaN,NaN
20050414,170748,7501,32.707180,-117.236747,NaN,NaN,NaN,NaN
20050414,170923,7596,32.707170,-117.236747,NaN,NaN,NaN,NaN
20050414,170953,7626,32.707178,-117.236748,NaN,NaN,NaN,NaN
20050414,171023,7656,32.707180,-117.236745,NaN,NaN,NaN,NaN
20050414,171053,7686,32.707178,-117.236748,NaN,NaN,NaN,NaN
20050414,171123,7716,32.707178,-117.236743,NaN,NaN,NaN,NaN
20050414,171153,7746,32.707180,-117.236748,NaN,NaN,NaN,NaN
20050414,171223,7776,32.707175,-117.236748,NaN,NaN,NaN,NaN
20050414,171253,7807,32.707170,-117.236755,NaN,NaN,NaN,NaN
20050414,171323,7836,32.707180,-117.236752,NaN,NaN,NaN,NaN
20050414,171353,7866,32.707175,-117.236752,NaN,NaN,NaN,NaN
20050414,171423,7896,32.707178,-117.236748,NaN,NaN,NaN,NaN
20050414,171453,7926,32.707171,-117.236748,NaN,NaN,NaN,NaN
20050414,171523,7956,32.707173,-117.236747,NaN,NaN,NaN,NaN
20050414,171554,7987,32.707170,-117.236750,NaN,NaN,NaN,NaN
20050414,171623,8016,32.707176,-117.236748,NaN,NaN,NaN,NaN
20050414,171653,8046,32.707168,-117.236747,NaN,NaN,NaN,NaN
20050414,171723,8076,32.707165,-117.236752,NaN,NaN,NaN,NaN
20050414,171753,8106,32.707168,-117.236748,NaN,NaN,NaN,NaN
20050414,171823,8136,32.707173,-117.236750,NaN,NaN,NaN,NaN
20050414,171853,8166,32.707171,-117.236743,NaN,NaN,NaN,NaN
20050414,171923,8196,32.707170,-117.236743,NaN,NaN,NaN,NaN
20050414,171953,8226,32.707176,-117.236742,NaN,NaN,NaN,NaN
20050414,172023,8256,32.707178,-117.236745,NaN,NaN,NaN,NaN
20050414,172053,8286,32.707175,-117.236748,NaN,NaN,NaN,NaN
20050414,172123,8316,32.707166,-117.236752,NaN,NaN,NaN,NaN
20050414,172154,8347,32.707181,-117.236745,NaN,NaN,NaN,NaN
20050414,172242,8395,32.707185,-117.236757,NaN,NaN,NaN,NaN
20050414,172437,8510,32.707175,-117.236728,NaN,NaN,NaN,NaN
20050414,172540,8573,32.707173,-117.236725,NaN,NaN,NaN,NaN
20050414,172610,8603,32.707171,-117.236725,NaN,NaN,NaN,NaN
20050414,172640,8633,32.707173,-117.236723,NaN,NaN,NaN,NaN
20050414,172710,8663,32.707171,-117.236727,NaN,NaN,NaN,NaN
20050414,172740,8693,32.707170,-117.236728,NaN,NaN,NaN,NaN
20050414,172810,8723,32.707170,-117.236730,NaN,NaN,NaN,NaN
20050414,172840,8753,32.707171,-117.236728,NaN,NaN,NaN,NaN
20050414,172910,8783,32.707170,-117.236725,NaN,NaN,NaN,NaN
20050414,172941,8814,32.707171,-117.236728,NaN,NaN,NaN,NaN
20050414,173011,8844,32.707168,-117.236727,NaN,NaN,NaN,NaN
20050414,173041,8874,32.707173,-117.236732,NaN,NaN,NaN,NaN
20050414,173112,8905,32.707170,-117.236728,NaN,NaN,NaN,NaN
20050414,173142,8935,32.707171,-117.236730,NaN,NaN,NaN,NaN
20050414,173212,8966,32.707180,-117.236757,NaN,NaN,NaN,NaN
20050414,173241,8994,32.707183,-117.236760,NaN,NaN,NaN,NaN
20050414,173311,9024,32.707196,-117.236757,NaN,NaN,NaN,NaN
20050414,173342,9055,32.707191,-117.236757,NaN,NaN,NaN,NaN
20050414,173411,9084,32.707186,-117.236755,NaN,NaN,NaN,NaN
20050414,173441,9114,32.707185,-117.236753,NaN,NaN,NaN,NaN
20050414,173511,9144,32.707183,-117.236755,NaN,NaN,NaN,NaN
20050414,173541,9174,32.707183,-117.236757,NaN,NaN,NaN,NaN
20050414,173611,9204,32.707178,-117.236757,NaN,NaN,NaN,NaN
20050414,173642,9235,32.707175,-117.236752,NaN,NaN,NaN,NaN
20050414,173711,9264,32.707176,-117.236750,NaN,NaN,NaN,NaN
20050414,173742,9295,32.707175,-117.236750,NaN,NaN,NaN,NaN
20050414,173812,9325,32.707175,-117.236752,NaN,NaN,NaN,NaN
20050414,173842,9355,32.707178,-117.236753,NaN,NaN,NaN,NaN
20050414,173912,9385,32.707178,-117.236752,NaN,NaN,NaN,NaN
20050414,173942,9415,32.707176,-117.236752,NaN,NaN,NaN,NaN
20050414,174012,9445,32.707178,-117.236752,NaN,NaN,NaN,NaN
20050414,174042,9475,32.707181,-117.236752,NaN,NaN,NaN,NaN
20050414,174113,9506,32.707188,-117.236765,NaN,NaN,NaN,NaN
20050414,174142,9535,32.707186,-117.236767,NaN,NaN,NaN,NaN
20050414,174213,9566,32.707181,-117.236763,NaN,NaN,NaN,NaN
20050414,174242,9595,32.707180,-117.236760,NaN,NaN,NaN,NaN
20050414,174312,9625,32.707176,-117.236762,NaN,NaN,NaN,NaN
20050414,174343,9656,32.707173,-117.236758,NaN,NaN,NaN,NaN
20050414,174413,9686,32.707171,-117.236750,NaN,NaN,NaN,NaN
20050414,174444,9717,32.707171,-117.236757,NaN,NaN,NaN,NaN
20050414,174514,9747,32.707175,-117.236753,NaN,NaN,NaN,NaN
20050414,174544,9777,32.707173,-117.236758,NaN,NaN,NaN,NaN
20050414,174613,9806,32.707173,-117.236755,NaN,NaN,NaN,NaN
20050414,174643,9836,32.707171,-117.236748,NaN,NaN,NaN,NaN
20050414,174713,9866,32.707160,-117.236753,NaN,NaN,NaN,NaN
20050414,174743,9896,32.707161,-117.236758,NaN,NaN,NaN,NaN
20050414,174814,9927,32.707171,-117.236760,NaN,NaN,NaN,NaN
20050414,174844,9957,32.707170,-117.236760,NaN,NaN,NaN,NaN
20050414,174913,9986,32.707170,-117.236757,NaN,NaN,NaN,NaN
20050414,174943,10016,32.707173,-117.236758,NaN,NaN,NaN,NaN
20050414,175014,10047,32.707173,-117.236753,NaN,NaN,NaN,NaN
20050414,175045,10078,32.707175,-117.236755,NaN,NaN,NaN,NaN
20050414,175115,10108,32.707171,-117.236755,NaN,NaN,NaN,NaN
20050414,175145,10138,32.707173,-117.236755,NaN,NaN,NaN,NaN
20050414,175215,10168,32.707171,-117.236755,NaN,NaN,NaN,NaN
20050414,175245,10198,32.707168,-117.236758,NaN,NaN,NaN,NaN
20050414,175315,10228,32.707178,-117.236753,NaN,NaN,NaN,NaN
20050414,175346,10259,32.707181,-117.236753,NaN,NaN,NaN,NaN
20050414,175415,10288,32.707166,-117.236758,NaN,NaN,NaN,NaN
20050414,175445,10318,32.707153,-117.236735,NaN,NaN,NaN,NaN
20050414,175515,10348,32.707155,-117.236738,NaN,NaN,NaN,NaN
20050414,175545,10378,32.707156,-117.236730,NaN,NaN,NaN,NaN
20050414,175615,10408,32.707158,-117.236735,NaN,NaN,NaN,NaN
20050414,175646,10439,32.707163,-117.236730,NaN,NaN,NaN,NaN
20050414,175715,10468,32.707160,-117.236728,NaN,NaN,NaN,NaN
20050414,175746,10499,32.707160,-117.236733,NaN,NaN,NaN,NaN
20050414,175817,10530,32.707160,-117.236728,NaN,NaN,NaN,NaN
20050414,175847,10560,32.707160,-117.236727,NaN,NaN,NaN,NaN
20050414,175916,10589,32.707161,-117.236728,NaN,NaN,NaN,NaN
20050414,175946,10619,32.707163,-117.236727,NaN,NaN,NaN,NaN
20050414,180016,10649,32.707161,-117.236730,NaN,NaN,NaN,NaN
20050414,180046,10679,32.707165,-117.236733,NaN,NaN,NaN,NaN
20050414,180116,10709,32.707163,-117.236722,NaN,NaN,NaN,NaN
20050414,180146,10739,32.707165,-117.236727,NaN,NaN,NaN,NaN
20050414,180216,10769,32.707173,-117.236753,NaN,NaN,NaN,NaN
20050414,180246,10800,32.707175,-117.236755,NaN,NaN,NaN,NaN
20050414,180317,10830,32.707161,-117.236718,NaN,NaN,NaN,NaN
20050414,180346,10859,32.707166,-117.236730,NaN,NaN,NaN,NaN
20050414,180416,10889,32.707166,-117.236728,NaN,NaN,NaN,NaN
20050414,180447,10920,32.707163,-117.236732,NaN,NaN,NaN,NaN
20050414,180517,10950,32.707165,-117.236735,NaN,NaN,NaN,NaN
20050414,180547,10980,32.707161,-117.236730,NaN,NaN,NaN,NaN
20050414,180618,11011,32.707168,-117.236733,NaN,NaN,NaN,NaN
20050414,180648,11041,32.707170,-117.236742,NaN,NaN,NaN,NaN
20050414,180718,11071,32.707163,-117.236738,NaN,NaN,NaN,NaN
20050414,180748,11101,32.707161,-117.236732,NaN,NaN,NaN,NaN
20050414,180817,11130,32.707166,-117.236740,NaN,NaN,NaN,NaN
20050414,180847,11160,32.707163,-117.236743,NaN,NaN,NaN,NaN
20050414,180917,11190,32.707163,-117.236743,NaN,NaN,NaN,NaN
20050414,180948,11221,32.707165,-117.236743,NaN,NaN,NaN,NaN
20050414,181018,11251,32.707165,-117.236743,NaN,NaN,NaN,NaN
20050414,181047,11280,32.707165,-117.236738,NaN,NaN,NaN,NaN
20050414,181118,11311,32.707163,-117.236738,NaN,NaN,NaN,NaN
20050414,181148,11341,32.707161,-117.236738,NaN,NaN,NaN,NaN
20050414,181217,11370,32.707163,-117.236740,NaN,NaN,NaN,NaN
20050414,181248,11401,32.707156,-117.236733,NaN,NaN,NaN,NaN
20050414,181318,11431,32.707158,-117.236733,NaN,NaN,NaN,NaN
20050414,181348,11461,32.707156,-117.236735,NaN,NaN,NaN,NaN
20050414,181419,11492,32.707156,-117.236733,NaN,NaN,NaN,NaN
20050414,181449,11522,32.707163,-117.236737,NaN,NaN,NaN,NaN
20050414,181519,11552,32.707165,-117.236735,NaN,NaN,NaN,NaN
20050414,181549,11582,32.707165,-117.236738,NaN,NaN,NaN,NaN
20050414,181619,11612,32.707166,-117.236735,NaN,NaN,NaN,NaN
20050414,181649,11642,32.707163,-117.236733,NaN,NaN,NaN,NaN
20050414,181720,11673,32.707160,-117.236733,NaN,NaN,NaN,NaN
20050414,181750,11703,32.707163,-117.236733,NaN,NaN,NaN,NaN
20050414,181821,11734,32.707158,-117.236747,NaN,NaN,NaN,NaN
20050414,181850,11763,32.707161,-117.236733,NaN,NaN,NaN,NaN
20050414,181921,11794,32.707161,-117.236733,NaN,NaN,NaN,NaN
20050414,181951,11824,32.707160,-117.236740,NaN,NaN,NaN,NaN
20050414,182020,11853,32.707163,-117.236742,NaN,NaN,NaN,NaN
20050414,182050,11883,32.707165,-117.236727,NaN,NaN,NaN,NaN
20050414,182120,11913,32.707166,-117.236728,NaN,NaN,NaN,NaN
20050414,182150,11943,32.707168,-117.236735,NaN,NaN,NaN,NaN
20050414,182220,11973,32.707166,-117.236745,NaN,NaN,NaN,NaN
20050414,182251,12004,32.707166,-117.236737,NaN,NaN,NaN,NaN
20050414,182321,12035,32.707166,-117.236735,NaN,NaN,NaN,NaN
20050414,182351,12064,32.707168,-117.236743,NaN,NaN,NaN,NaN
20050414,182421,12094,32.707168,-117.236745,NaN,NaN,NaN,NaN
20050414,182450,12124,32.707170,-117.236747,NaN,NaN,NaN,NaN
20050414,182520,12153,32.707166,-117.236733,NaN,NaN,NaN,NaN
20050414,182551,12184,32.707163,-117.236733,NaN,NaN,NaN,NaN
20050414,182621,12214,32.707165,-117.236737,NaN,NaN,NaN,NaN
20050414,182651,12244,32.707165,-117.236740,NaN,NaN,NaN,NaN
20050414,182722,12275,32.707165,-117.236740,NaN,NaN,NaN,NaN
20050414,182752,12305,32.707165,-117.236733,NaN,NaN,NaN,NaN
20050414,182821,12334,32.707165,-117.236733,NaN,NaN,NaN,NaN
20050414,182851,12364,32.707163,-117.236733,NaN,NaN,NaN,NaN
20050414,182921,12394,32.707163,-117.236733,NaN,NaN,NaN,NaN
20050414,182951,12424,32.707165,-117.236742,NaN,NaN,NaN,NaN
20050414,183021,12454,32.707165,-117.236747,NaN,NaN,NaN,NaN
20050414,183051,12484,32.707166,-117.236745,NaN,NaN,NaN,NaN
20050414,183122,12515,32.707168,-117.236740,NaN,NaN,NaN,NaN
20050414,183151,12544,32.707166,-117.236735,NaN,NaN,NaN,NaN
20050414,183222,12575,32.707163,-117.236733,NaN,NaN,NaN,NaN
20050414,183252,12605,32.707166,-117.236735,NaN,NaN,NaN,NaN
20050414,183321,12634,32.707165,-117.236735,NaN,NaN,NaN,NaN
20050414,183352,12665,32.707168,-117.236737,NaN,NaN,NaN,NaN
20050414,183422,12695,32.707168,-117.236740,NaN,NaN,NaN,NaN